Regional Weather Roundup
Issued by NWS

Home | Current Version | Previous Version | Text Only | Print | Product List | Glossary On
Versions: 1 2 3 4 5 6 7 8 9 10 11 12 13 14 15 16 17 18 19 20 21 22 23 24 25 26 27 28 29 30 31 32 33 34 35 36 37 38 39 40 41 42 43 44 45 46 47 48 49 50
000
ASUS43 KTOP 261508
RWRKS

WEATHER ROUNDUP FOR KANSAS
NATIONAL WEATHER SERVICE GOODLAND KS
900 AM CST SUN FEB 26 2017

NOTE:  "FAIR" INDICATES FEW OR NO CLOUDS BELOW 12,000 FEET WITH NO
SIGNIFICANT WEATHER AND/OR OBSTRUCTIONS TO VISIBILITY.

KSZ001>006-013>018-027>032-041>047-261600-
NORTHWEST KANSAS

CITY           SKY/WX    TMP DP  RH WIND       PRES   REMARKS
GOODLAND       SUNNY     23  13  65 W5        29.89R
HAYS           SUNNY     30  18  60 CALM      29.95R
HILL CITY      SUNNY     33  17  51 NE5       29.96R
RUSSELL        SUNNY     35  23  61 E8        29.93R
$$

KSZ061>065-074>080-084>089-261600-
SOUTHWEST KANSAS

CITY           SKY/WX    TMP DP  RH WIND       PRES   REMARKS
DODGE CITY     SUNNY     31  17  56 N12       29.91R WCI  22
ELKHART          N/A     28   3  34 NW7         N/A
GARDEN CITY    SUNNY     26  15  63 N6        29.90R
GREAT BEND     SUNNY     31  21  66 NE7       29.94R
LIBERAL        SUNNY     32  14  47 NW15      29.89R WCI  22
PRATT          CLOUDY    31  18  57 NW3       29.94R
$$

KSZ066>073-081>083-090>101-261600-
SOUTHEAST KANSAS

CITY           SKY/WX    TMP DP  RH WIND       PRES   REMARKS
CHANUTE        CLOUDY    40  21  46 SE13      30.01S WCI  32
COFFEYVILLE    CLOUDY    40  25  55 S10       30.03R WCI  33
HUTCHINSON     SUNNY     35  22  58 N5        29.95R
MEDICINE LODGE   N/A     34  22  61 CALM      29.93R
NEWTON         MOSUNNY   36  21  54 SE9       29.96R
PARSONS        CLOUDY    41  22  46 SE8       30.02S
WICHITA INTL   PTSUNNY   37  22  54 S9        29.95R
WICHITA JABRA  MOSUNNY   37  22  54 S7        29.95R
WICHITA MCCONL MOSUNNY   38  20  48 S9        29.95R
WINFIELD       CLOUDY    39  23  52 SE9       29.97R
$$

KSZ007>012-019>026-033>040-048>060-102>105-261600-
NORTHEAST KANSAS

CITY           SKY/WX    TMP DP  RH WIND       PRES   REMARKS
CONCORDIA      SUNNY     40  27  59 S10       29.95R WCI  33
EMPORIA        CLOUDY    34  32  92 E9        29.98S
LAWRENCE       CLOUDY    34  33  96 CALM      30.04R
MANHATTAN      PTSUNNY   37  33  85 E3        30.00R
MARYSVILLE     PTSUNNY   36  32  87 S9        29.96S
OLATHE IND     CLOUDY    37  29  72 CALM      30.03S
OLATHE EXE     CLOUDY    35  33  92 N3        30.03S
SALINA         MOSUNNY   33  32  96 E5        29.98S FOG
TOPEKA BILLARD CLOUDY    36  32  85 SE7       30.03R
TOPEKA FORBES  CLOUDY    37  30  75 SE5       30.02S
$$



USA.gov is the U.S. government's official web portal to all federal, state and local government web resources and services.